Station RDYD1 - 8551910 - Reedy Point, DE Image indicating link to RSS feed of recent meteorological observations for station RDYD1


Conditions at RDYD1 as of
(12:00 pm EDT)
1600 GMT on 04/18/2024:
     

Click on the graph icon in the table below to see a time series plot of the last five days of that observation.

5-day plot - Atmospheric Pressure Atmospheric Pressure (PRES):30.02 in
5-day plot - Pressure Tendency Pressure Tendency (PTDY):+0.03 in ( Rising )
5-day plot - Air Temperature Air Temperature (ATMP): 54.9 °F
5-day plot - Water Temperature Water Temperature (WTMP): 57.0 °F
NOS Water Level Observation Network Water Level
Previous observations
TIME
(EDT)
5-day plot - Wind Direction
WDIR
 
5-day plot - Wind Speed
WSPD
kts
5-day plot - Wind Gust
GST
kts
5-day plot - Wave Height
WVHT
ft
5-day plot - Dominant Wave Period
DPD
sec
5-day plot - Average Wave Period
APD
sec
5-day plot - Mean Wave Direction
MWD
 
5-day plot - Atmospheric Pressure
PRES
in
5-day plot - Pressure Tendency
PTDY
in
5-day plot - Air Temperature
ATMP
°F
5-day plot - Water Temperature
WTMP
°F
5-day plot - Dew Point
DEWP
°F
5-day plot - Salinity
SAL
psu
5-day plot - Visibility
VIS
nmi
5-day plot - Tide (above MLLW)
TIDE
ft
2024-04-18 11:54 am-------30.02- 54.5 57.0----
2024-04-18 11:48 am-------30.02- 54.7 57.0----
2024-04-18 11:42 am-------30.02- 54.3 57.0----
2024-04-18 11:36 am-------30.02- 54.1 57.0----
2024-04-18 11:30 am-------30.01- 53.8 57.0----
2024-04-18 11:24 am-------30.01- 53.6 57.0----
2024-04-18 11:18 am-------30.01- 53.2 57.0----
2024-04-18 11:12 am-------30.01- 53.4 57.0----
2024-04-18 11:06 am-------30.01- 53.4 57.0----
2024-04-18 11:00 am-------30.02+0.03 53.2 57.0----
2024-04-18 10:54 am-------30.02- 53.2 57.0----
2024-04-18 10:48 am-------30.01- 52.9 57.0----
2024-04-18 10:42 am-------30.01- 53.1 57.0----
2024-04-18 10:36 am-------30.01- 52.9 57.0----
2024-04-18 10:30 am-------30.01- 52.7 57.2----
2024-04-18 10:24 am-------30.01- 52.7 57.2----
2024-04-18 10:18 am-------30.01- 52.5 57.2----
2024-04-18 10:12 am-------30.01- 52.5 57.2----
2024-04-18 10:06 am-------30.00- 52.3 57.2----
2024-04-18 10:00 am-------30.00+0.04 52.3 57.2----
2024-04-18 09:54 am-------30.00- 52.0 57.0----
2024-04-18 09:48 am-------30.00- 51.8 57.0----
2024-04-18 09:42 am-------30.00- 52.0 57.0----
2024-04-18 09:36 am-------30.00- 52.0 57.0----
2024-04-18 09:30 am-------29.99- 52.0 57.0----
2024-04-18 09:24 am-------29.99- 51.8 57.0----
2024-04-18 09:18 am-------29.99- 52.0 57.0----
2024-04-18 09:12 am-------29.99- 51.6 57.0----
2024-04-18 09:06 am-------29.99- 51.8 57.0----
2024-04-18 09:00 am-------29.99+0.07 51.6 57.0----
2024-04-18 08:54 am-------29.98- 51.4 57.0----
2024-04-18 08:48 am-------29.99- 51.8 57.0----
2024-04-18 08:42 am-------29.98- 51.6 57.0----
2024-04-18 08:36 am-------29.98- 51.4 57.2----
2024-04-18 08:30 am-------29.99- 51.6 57.2----
2024-04-18 08:24 am-------29.98- 51.8 57.2----
2024-04-18 08:18 am-------29.98- 51.4 57.2----
2024-04-18 08:12 am-------29.98- 51.8 57.2----
2024-04-18 08:06 am-------29.99- 51.6 57.2----
2024-04-18 08:00 am-------29.98+0.10 51.6 57.2----
2024-04-18 07:54 am-------29.98- 51.6 57.2----
2024-04-18 07:48 am-------29.98- 51.6 57.2----
2024-04-18 07:42 am-------29.98- 51.8 57.2----
2024-04-18 07:36 am-------29.97- 51.8 57.2----
2024-04-18 07:30 am-------29.97- 52.2 57.2----
2024-04-18 07:24 am-------29.97- 51.8 57.2----
2024-04-18 07:18 am-------29.96- 52.0 57.2----
2024-04-18 07:12 am-------29.96- 52.0 57.2----
2024-04-18 07:06 am-------29.96- 52.2 57.2----
2024-04-18 07:00 am-------29.96+0.06 52.0 57.2----
2024-04-18 06:54 am-------29.95- 52.0 57.2----
2024-04-18 06:48 am-------29.94- 52.2 57.2----
2024-04-18 06:42 am-------29.94- 52.0 57.2----
2024-04-18 06:36 am-------29.93- 52.0 57.2----
2024-04-18 06:30 am-------29.93- 52.0 57.2----
2024-04-18 06:24 am-------29.93- 52.0 57.2----
2024-04-18 06:18 am-------29.93- 52.0 57.2----
2024-04-18 06:12 am-------29.92- 52.0 57.2----
2024-04-18 06:06 am-------29.92- 51.8 57.2----
2024-04-18 06:00 am-------29.91+0.03 52.2 57.2----
2024-04-18 05:54 am-------29.91- 52.0 57.2----
2024-04-18 05:48 am-------29.91- 52.2 57.2----
2024-04-18 05:42 am-------29.91- 52.0 57.2----
2024-04-18 05:36 am-------29.90- 52.2 57.2----
2024-04-18 05:30 am-------29.90- 52.2 57.2----
2024-04-18 05:24 am-------29.89- 52.0 57.2----
2024-04-18 05:18 am-------29.88- 52.2 57.2----
2024-04-18 05:12 am-------29.89- 52.3 57.2----
2024-04-18 05:06 am-------29.89- 52.2 57.2----
2024-04-18 05:00 am-------29.89-0.01 52.2 57.2----
2024-04-18 04:54 am-------29.88- 52.3 57.2----
2024-04-18 04:48 am-------29.89- 52.3 57.2----
2024-04-18 04:42 am-------29.89- 52.5 57.2----
2024-04-18 04:36 am-------29.88- 52.5 57.2----
2024-04-18 04:30 am-------29.88- 52.5 57.2----
2024-04-18 04:24 am-------29.89- 52.5 57.2----
2024-04-18 04:18 am-------29.89- 52.7 57.2----
2024-04-18 04:12 am-------29.89- 52.7 57.2----
2024-04-18 04:06 am-------29.90- 52.5 57.2----
2024-04-18 04:00 am-------29.89+0.00 52.7 57.2----
2024-04-18 03:54 am-------29.89- 52.9 57.2----
2024-04-18 03:48 am-------29.89- 52.7 57.2----
2024-04-18 03:42 am-------29.88- 53.1 57.2----
2024-04-18 03:36 am-------29.88- 52.9 57.2----
2024-04-18 03:30 am-------29.88- 53.1 57.2----
2024-04-18 03:24 am-------29.89- 53.1 57.2----
2024-04-18 03:18 am-------29.89- 53.2 57.4----
2024-04-18 03:12 am-------29.88- 53.4 57.4----
2024-04-18 03:06 am-------29.88- 53.4 57.4----
2024-04-18 03:00 am-------29.88-0.01 53.6 57.4----
2024-04-18 02:54 am-------29.88- 53.6 57.4----
2024-04-18 02:48 am-------29.88- 54.0 57.4----
2024-04-18 02:42 am-------29.87- 54.0 57.4----
2024-04-18 02:36 am-------29.87- 54.1 57.4----
2024-04-18 02:30 am-------29.88- 54.1 57.4----
2024-04-18 02:24 am-------29.88- 54.1 57.6----
2024-04-18 02:18 am-------29.89- 54.3 57.6----
2024-04-18 02:12 am-------29.90- 54.3 57.6----
2024-04-18 02:06 am-------29.90- 54.5 57.6----
2024-04-18 02:00 am-------29.90-0.01 54.5 57.6----
2024-04-18 01:54 am-------29.89- 54.7 57.6----
2024-04-18 01:48 am-------29.89- 54.7 57.6----
2024-04-18 01:42 am-------29.89- 54.7 57.6----
2024-04-18 01:36 am-------29.90- 54.9 57.6----
2024-04-18 01:30 am-------29.90- 55.0 57.6----
2024-04-18 01:24 am-------29.90- 55.2 57.6----
2024-04-18 01:18 am-------29.89- 55.4 57.6----
2024-04-18 01:12 am-------29.89- 55.6 57.6----
2024-04-18 01:06 am-------29.89- 55.8 57.6----
2024-04-18 01:00 am-------29.89-0.04 55.8 57.6----
2024-04-18 12:54 am-------29.89- 55.9 57.6----
2024-04-18 12:48 am-------29.89- 55.9 57.6----
2024-04-18 12:42 am-------29.89- 55.9 57.7----
2024-04-18 12:36 am-------29.89- 55.9 57.7----
2024-04-18 12:30 am-------29.89- 55.9 57.7----
2024-04-18 12:24 am-------29.89- 56.1 57.7----
2024-04-18 12:18 am-------29.89- 56.1 57.7----
2024-04-18 12:12 am-------29.89- 56.1 57.7----
2024-04-18 12:06 am-------29.89- 56.1 57.7----
2024-04-18 12:00 am-------29.89-0.06 56.1 57.7----
2024-04-17 11:54 pm-------29.90- 56.3 57.7----
2024-04-17 11:48 pm-------29.90- 56.3 57.7----
2024-04-17 11:42 pm-------29.90- 56.3 57.7----
2024-04-17 11:36 pm-------29.90- 56.5 57.7----
2024-04-17 11:30 pm-------29.91- 56.5 57.7----
2024-04-17 11:24 pm-------29.91- 56.7 57.7----
2024-04-17 11:18 pm-------29.91- 56.8 57.7----
2024-04-17 11:12 pm-------29.91- 57.0 57.7----
2024-04-17 11:06 pm-------29.91- 57.2 57.9----
2024-04-17 11:00 pm-------29.91+0.00 57.4 57.9----
2024-04-17 10:54 pm-------29.91- 57.6 57.9----
2024-04-17 10:48 pm-------29.91- 57.6 57.9----
2024-04-17 10:42 pm-------29.91- 57.6 57.9----
2024-04-17 10:36 pm-------29.92- 57.7 57.9----
2024-04-17 10:30 pm-------29.92- 57.9 57.9----
2024-04-17 10:24 pm-------29.93- 58.1 57.9----
2024-04-17 10:18 pm-------29.93- 58.3 57.9----
2024-04-17 10:12 pm-------29.93- 58.3 57.9----
2024-04-17 10:06 pm-------29.94- 58.5 57.9----
2024-04-17 10:00 pm-------29.93+0.00 58.6 57.9----
2024-04-17 09:54 pm-------29.94- 58.8 57.9----
2024-04-17 09:48 pm-------29.94- 59.0 58.1----
2024-04-17 09:42 pm-------29.95- 59.0 58.1----
2024-04-17 09:36 pm-------29.95- 59.2 58.1----
2024-04-17 09:30 pm-------29.95- 59.4 58.1----
2024-04-17 09:24 pm-------29.96- 59.4 58.1----
2024-04-17 09:18 pm-------29.96- 59.5 58.1----
2024-04-17 09:12 pm-------29.96- 59.5 58.1----
2024-04-17 09:06 pm-------29.96- 59.5 58.1----
2024-04-17 09:00 pm-------29.95+0.00 59.7 58.1----
2024-04-17 08:54 pm-------29.95- 59.7 58.3----
2024-04-17 08:48 pm-------29.95- 59.7 58.3----
2024-04-17 08:42 pm-------29.94- 59.9 58.3----
2024-04-17 08:36 pm-------29.93- 59.9 58.3----
2024-04-17 08:30 pm-------29.93- 60.1 58.3----
2024-04-17 08:24 pm-------29.93- 60.1 58.3----
2024-04-17 08:18 pm-------29.93- 60.1 58.3----
2024-04-17 08:12 pm-------29.93- 60.3 58.3----
2024-04-17 08:06 pm-------29.92- 60.3 58.3----
2024-04-17 08:00 pm-------29.92-0.06 60.3 58.3----
2024-04-17 07:54 pm-------29.92- 60.4 58.3----
2024-04-17 07:48 pm-------29.92- 60.4 58.3----
2024-04-17 07:42 pm-------29.92- 60.4 58.3----
2024-04-17 07:36 pm-------29.92- 60.4 58.3----
2024-04-17 07:30 pm-------29.93- 60.6 58.3----
2024-04-17 07:24 pm-------29.93- 60.6 58.3----
2024-04-17 07:00 pm-------29.93+0.00 60.6 58.1----
2024-04-17 06:54 pm-------29.93- 60.6 58.1----
2024-04-17 06:48 pm-------29.93- 60.6 58.1----
2024-04-17 06:42 pm-------29.93- 60.6 58.1----
2024-04-17 06:36 pm-------29.94- 60.4 58.1----
2024-04-17 06:30 pm-------29.94- 60.6 58.1----
2024-04-17 06:24 pm-------29.94- 60.4 58.1----
2024-04-17 06:18 pm-------29.94- 60.3 58.1----
2024-04-17 06:12 pm-------29.94- 60.4 58.1----
2024-04-17 06:06 pm-------29.95- 60.1 58.1----
2024-04-17 06:00 pm-------29.96-0.08- 58.1----
2024-04-17 05:54 pm-------29.96-- 58.1----
2024-04-17 05:48 pm-------29.96- 59.7 58.1----
2024-04-17 05:42 pm-------29.96- 60.1 57.9----
2024-04-17 05:36 pm-------29.97- 60.3 58.1----
2024-04-17 05:30 pm-------29.97- 60.3 57.9----
2024-04-17 05:24 pm-------29.98- 60.3 57.9----
2024-04-17 05:18 pm-------29.98- 60.4 57.7----
2024-04-17 05:12 pm-------29.97- 60.6 57.7----
2024-04-17 05:06 pm-------29.98- 61.2 57.7----
2024-04-17 05:00 pm-------29.98-0.07 61.9 57.7----
2024-04-17 04:54 pm-------29.98- 63.1 57.7----
2024-04-17 04:48 pm-------29.98- 64.2 57.6----
2024-04-17 04:42 pm-------29.97- 64.6 57.6----
2024-04-17 04:36 pm-------29.97- 64.6 57.6----
2024-04-17 04:30 pm-------29.96- 64.9 57.6----
2024-04-17 04:24 pm-------29.95- 64.8 57.4----
2024-04-17 04:18 pm-------29.94- 64.4 57.6----
2024-04-17 04:12 pm-------29.93- 63.9 57.4----
2024-04-17 04:06 pm-------29.93- 63.1 57.4----
2024-04-17 04:00 pm-------29.93-0.12 62.4 57.4----
2024-04-17 03:54 pm-------29.93- 61.2 57.2----
2024-04-17 03:48 pm-------29.94- 60.1 57.2----
2024-04-17 03:42 pm-------29.96- 59.4 57.2----
2024-04-17 03:36 pm-------29.98- 59.4 57.2----
2024-04-17 03:30 pm-------29.97- 61.0 57.2----
2024-04-17 03:24 pm-------30.01- 60.4 57.2----
2024-04-17 03:18 pm-------30.02- 60.4 57.2----
2024-04-17 03:12 pm-------30.03- 61.3 57.2----
2024-04-17 03:06 pm-------30.03- 61.0 57.2----
2024-04-17 03:00 pm-------30.04-0.05 60.4 57.2----
2024-04-17 02:54 pm-------30.04- 59.9 57.2----
2024-04-17 02:48 pm-------30.03- 58.6 57.2----
2024-04-17 02:42 pm-------30.02- 58.3 57.0----
2024-04-17 02:36 pm-------30.03- 58.6 57.0----
2024-04-17 02:30 pm-------30.04- 58.5 57.0----
2024-04-17 02:24 pm-------30.04- 58.3 57.0----
2024-04-17 02:18 pm-------30.04- 58.1 57.0----
2024-04-17 02:12 pm-------30.03- 58.1 57.0----
2024-04-17 02:06 pm-------30.04- 58.3 57.0----
2024-04-17 02:00 pm-------30.05-0.06 58.5 57.0----
2024-04-17 01:54 pm-------30.05- 58.5 57.0----
2024-04-17 01:48 pm-------30.04- 58.1 57.0----
2024-04-17 01:42 pm-------30.04- 57.7 57.0----
2024-04-17 01:36 pm-------30.05- 57.2 57.0----
2024-04-17 01:30 pm-------30.04- 56.8 57.0----
2024-04-17 01:24 pm-------30.04- 56.5 57.0----
2024-04-17 01:18 pm-------30.04- 56.3 57.0----
2024-04-17 01:12 pm-------30.04- 56.1 57.0----
2024-04-17 01:06 pm-------30.05- 55.9 57.0----
2024-04-17 01:00 pm-------30.05-0.06 55.8 57.0----
2024-04-17 12:54 pm-------30.06- 55.9 57.0----
2024-04-17 12:48 pm-------30.06- 56.1 57.0----
2024-04-17 12:42 pm-------30.07- 57.0 57.0----
2024-04-17 12:36 pm-------30.08- 58.6 57.0----
2024-04-17 12:30 pm-------30.08- 60.1 57.0----
2024-04-17 12:24 pm-------30.09- 61.5 57.0----
2024-04-17 12:18 pm-------30.09- 61.9 57.0----
2024-04-17 12:12 pm-------30.09- 61.7 57.0----
2024-04-17 12:06 pm-------30.09- 61.3 57.0----
2024-04-17 12:00 pm-------30.09-0.01 60.8 57.0----
2024-04-17 11:54 am-------30.10- 60.6 57.0----